Location: Castillon
(43.0896°N, 0.2156°E)
Time: 18:27:37
(UTC+00:00)

Cosmos 1470 - Pass Details

Date: 16 June 2021
Orbit: 519 x 542 km, 82.5° (Epoch: 02 August)

Event Time Altitude Azimuth Distance (km) Brightness Sun altitude
Rises 20:09:05 0° 358° (N) 2,714 7.0 -5.0°
Reaches altitude 10° 20:11:21 10° 6° (N) 1,815 6.0 -5.3°
Maximum altitude 20:15:08 41° 77° (ENE) 800 3.4 -5.8°
Drops below altitude 10° 20:18:52 10° 149° (SSE) 1,792 4.8 -6.4°
Enters shadow 20:19:36 - 152° (SSE) 2,078 5.2 -6.5°
